Location: Lanzo Torinese
(45.2667°N, 7.4667°E)
Time: 21:10:29
(UTC+00:00)

Daily predictions for brighter satellites

Satellite Brightness Start Highest point End
(mag) Time Altitude Azimuth Time Altitude Azimuth Time Altitude Azimuth
ARIANE 5 R/B 3.5 16:39:46 10° S 16:44:53 54° W 16:50:00 10° NNW
Cosmos 1943 Rocket 2.6 16:40:16 10° NNW 16:45:39 42° NE 16:50:57 10° SE
NOSS 5 (C) 4.3 16:44:18 10° NNW 16:47:29 54° NE 16:50:42 10° SE
Cosmos 2237 Rocket 2.8 16:43:51 10° S 16:49:05 39° ESE 16:54:20 10° NE
RESURS DK-1 3.0 16:48:52 10° N 16:52:32 32° NE 16:56:11 10° ESE
Tsikada Rocket 4.2 16:47:05 10° S 16:53:13 81° W 16:59:26 10° N
Cosmos 1862 Rocket 4.3 16:49:37 10° SSE 16:53:31 33° E 16:57:27 10° NNE
USA 81 4.3 16:50:06 10° S 16:55:22 76° W 17:00:39 10° N
BlueWalker 3 3.2 16:53:46 10° NW 16:56:48 24° N 16:59:50 10° ENE
BREEZE-M DEB (TANK) 1.1 16:55:03 10° WSW 16:57:22 80° NNW 17:00:09 10° ENE
Cosmos 1455 1.9 16:56:02 10° NNW 16:59:15 75° W 17:02:26 10° S
Cosmos 2278 Rocket 2.2 16:54:12 10° NNW 16:59:52 68° ENE 17:05:29 10° SE
Cosmos 2219 Rocket 3.6 16:55:24 10° WSW 17:00:26 34° NW 17:05:32 10° N
SJ-7 4.2 16:56:51 10° SSE 17:00:34 60° ENE 17:04:19 10° N
ARGOS Delta rocket 3.7 16:56:27 10° SSE 17:01:07 76° ENE 17:05:36 10° N
COSMO-SKYMED 1 3.4 16:58:17 10° NNE 17:02:08 30° E 17:05:58 10° SSE
ISS -3.6 16:59:47 10° SW 17:03:06 66° SSE 17:06:06 12° ENE
CZ-4C R/B 2.5 16:59:42 10° S 17:03:29 32° ESE 17:08:01 10° NE
CSL-04 DEB 4.2 17:01:09 10° SSE 17:05:02 84° ENE 17:08:51 10° NNW
Cosmos 2084 Rocket 4.4 17:01:52 10° NW 17:05:47 49° WSW 17:09:38 10° SSE
Meteor 1-21 4.3 17:02:10 10° S 17:07:46 88° WNW 17:13:27 10° N
Cosmos 1763 Rocket 3.6 17:05:51 10° SSW 17:11:03 79° WNW 17:16:14 10° NNE
Spot 4 Rocket 4.1 17:06:16 10° SSE 17:11:24 84° WSW 17:16:34 10° NNW
USA 306 3.9 17:11:06 10° NNW 17:12:10 12° NNE 17:12:55 11° NNE
YAOGAN 1 3.6 17:08:51 10° ESE 17:12:17 24° ENE 17:15:44 10° NNE
ATLAS 5 CENTAUR R/B 2.6 17:11:21 10° SSE 17:13:17 15° ESE 17:14:20 13° E
Cosmos 1733 Rocket 3.0 17:11:06 10° N 17:15:29 66° E 17:19:52 10° SSE
Cosmos 540 Rocket 3.5 17:11:37 10° SSW 17:16:46 89° WNW 17:21:55 10° NNE
Landsat 7 4.0 17:13:50 10° SE 17:18:17 45° ENE 17:22:46 10° N
Cosmos 468 Rocket 3.9 17:15:29 10° SSW 17:20:40 78° ESE 17:25:51 10° NNE
USA 215 4.1 17:16:14 10° NE 17:22:11 39° NNW 17:28:08 10° W
Cosmos 2228 Rocket 3.1 17:19:51 10° S 17:24:22 77° E 17:28:56 10° NNE
Cosmos 2279 Rocket 4.1 17:21:27 10° N 17:27:40 82° W 17:33:50 10° S
NOSS 8 (A) 4.1 17:26:41 10° NW 17:29:40 84° NE 17:33:15 10° SE
Cosmos 841 Rocket 3.8 17:25:10 10° S 17:30:09 46° ESE 17:34:59 11° NNE
Cosmos 1898 Rocket 3.5 17:25:14 10° NNW 17:30:30 62° ENE 17:35:45 10° SSE
PSLV R/B 4.4 17:28:20 10° S 17:32:17 51° W 17:36:17 10° NNW
Aureole 1 Rocket 4.3 17:27:00 10° NNW 17:34:44 79° ENE 17:41:32 10° SSE
Cosmos 1703 3.9 17:32:33 10° SSE 17:35:35 28° E 17:36:27 25° ENE
Okean 1-7 3.0 17:33:53 10° S 17:38:03 56° E 17:42:16 10° NNE
SL-16 R/B 3.0 17:33:37 10° SSE 17:38:24 29° ESE 17:40:55 21° ENE
Cosmos 1980 3.8 17:33:05 10° SSW 17:38:44 82° WNW 17:44:25 10° NNE
Cosmos 1953 2.9 17:40:36 10° NNW 17:44:14 54° W 17:47:51 10° S
SKYMED 2 3.6 17:45:55 10° NNE 17:50:18 85° WNW 17:54:39 10° SSW
Cosmos 1092 Rocket 4.3 17:47:23 10° SSE 17:53:02 40° E 17:58:45 10° NNE
Cosmos 1818 3.8 17:47:55 10° NNW 17:53:13 47° NE 17:56:19 23° ESE
ATLAS 2AS CENTAUR R/B 2.8 17:48:13 10° NNW 17:54:50 49° NE 17:59:05 21° ESE
ACS3 Solar Sail 1.8 17:48:39 10° SSE 17:55:02 77° ENE 18:01:26 10° N
Cosmos 2369 Rocket 3.0 17:51:27 10° N 17:56:16 28° NE 17:56:55 28° ENE
COSMOS 2428 4.3 17:51:21 10° WSW 17:56:20 31° NW 18:01:20 10° N
Cosmos 372 Rocket 4.0 17:55:25 10° NNW 18:00:31 77° WSW 18:05:35 10° SSE
DNEPR-1 R/B 4.3 18:00:46 10° NW 18:05:21 53° WSW 18:09:27 10° SSE
BREEZE-M DEB (TANK) 3.5 17:58:30 10° W 18:06:16 51° NNW 18:07:22 37° NE
Cosmos 1908 Rocket 3.3 18:04:12 10° N 18:08:34 76° E 18:12:51 10° SSE
Meteor 2-12 Rocket 4.3 18:04:18 10° S 18:10:19 68° E 18:16:23 10° NNE
Meteor 1-31 Rocket 3.0 18:07:59 10° S 18:11:30 63° WSW 18:15:04 10° NNW
EO 1 Delta rocket 4.2 18:09:34 10° N 18:14:14 64° WNW 18:18:51 10° SSW
Cosmos 1627 Rocket 4.5 18:09:44 10° S 18:16:00 62° E 18:22:18 10° NNE
Cosmos 2297 3.9 18:14:01 10° NNW 18:19:33 46° ENE 18:20:17 44° E
CZ-2C R/B 4.1 18:22:18 24° NNW 18:22:18 24° NNW 18:23:44 10° NNW
Cosmos 1937 Rocket 3.7 18:15:23 10° NNW 18:20:31 70° WSW 18:25:39 10° S
Cosmos 2026 Rocket 3.9 18:15:22 10° S 18:21:41 70° E 18:28:01 10° NNE
Cosmos 1932 4.3 18:17:10 10° SSW 18:23:18 73° ESE 18:25:49 38° NE
Cosmos 858 Rocket 4.5 18:19:53 10° NNW 18:25:07 83° WSW 18:30:20 10° SSE
Cosmos 1825 4.5 18:23:10 10° S 18:23:11 10° S 18:23:11 10° S
BREEZE-M DEB (TANK) 3.3 18:13:52 10° WSW 18:27:32 75° NNW 18:28:55 48° NE
Cosmos 1943 Rocket 4.0 18:24:16 10° NW 18:29:14 32° WSW 18:34:08 10° SSW
Cosmos 2237 Rocket 3.6 18:27:56 10° WSW 18:33:09 36° NW 18:37:59 12° N
BlueWalker 3 3.1 18:31:33 10° NW 18:33:53 34° NNW 18:33:53 34° NNW
ISS -1.9 18:36:56 10° W 18:39:01 27° NW 18:39:01 27° NW
YAOGAN 1 4.2 18:44:08 10° SSW 18:48:01 34° W 18:51:56 10° NNW
CZ-4C R/B 3.0 18:47:21 10° WSW 18:51:36 38° NW 18:53:04 32° N
ATLAS 5 CENTAUR R/B 3.2 18:53:09 10° WSW 18:54:39 23° W 18:54:39 23° W
Meteor 1-24 Rocket 3.7 18:50:50 10° S 18:56:45 89° E 18:58:08 56° NNE
SPOT 1/Viking Rocket 4.3 18:54:13 10° S 18:59:13 49° W 19:04:13 10° NNW
USA 215 4.2 19:03:32 31° NNE 19:04:13 32° N 19:09:50 10° NW
Meteor 2-5 Rocket 3.8 19:01:38 10° SSW 19:07:23 80° W 19:07:38 77° NW
Cosmos 1656 Rocket 4.2 19:08:38 10° NW 19:13:58 54° WSW 19:14:50 49° SW
SL-16 R/B 3.0 19:16:48 10° SW 19:22:15 47° WNW 19:22:50 45° NW
Cosmos 1553 Rocket 4.5 19:19:17 10° NNW 19:23:51 51° NNW 19:23:51 51° NNW
ACS3 Solar Sail 4.3 19:34:49 10° SW 19:39:13 19° W 19:43:39 10° NW
Cosmos 2369 Rocket 3.4 19:35:08 10° NW 19:38:45 37° WNW 19:38:45 37° WNW
ATLAS 2AS CENTAUR R/B 3.6 19:39:24 10° NW 19:45:36 40° WSW 19:46:35 38° SW
